Terug naar catalogus

SL-12 DEB

LostHEO
NORAD 39798·DEBRIS·🇷🇺 Russia

Gelanceerd Sep 25, 2008 vanaf Baikonur Cosmodrome

Loading…

Volgende Passages (komende 24 uur)

TLE

VerouderdSource: Space-Track

Epoch: Aug 31, 2022, 16:35 UTC

1 39798U 08046K   22243.69099779  .00010555  00000-0  54857-2 0  9990
2 39798  64.2514 140.9486 5741875 354.0701   1.3803  4.36475544127837

Volg SL-12 DEB in realtime met AllMySat

Download on the App Store